This demonstration page uses our WeatherBlox Daily Observations layout. Learn more.

Left ArrowRight Arrow

39.12711, -84.51439

Hourly Observations for May 24, 2022

Temp ( °F °C ) Dew Point ( °F °C ) Humidity (%) Winds ( mph kmh ) Pressure ( in mb ) Visibility ( mi km ) Precip ( " mm )
12:53 am 00:53 Clear 50 10 50 10 100 100 Calm 30.17 1022 9 14 0.00 0.00
1:53 am 01:53 Clear 49 9.4 49 9.4 100 100 E 3 6 30.14 1021 7 11 0.00 0.00
2:53 am 02:53 Clear 50 10 50 10 100 100 Calm 30.14 1021 7 11 0.00 0.00
3:53 am 03:53 Clear 48 8.9 48 8.9 100 100 Calm 30.14 1021 8 13 0.00 0.00
4:53 am 04:53 Partly Cloudy 50 10 50 10 100 100 NNE 3 6 30.16 1021 9 14 0.00 0.00
5:53 am 05:53 Mostly Clear 49 9.4 49 9.4 100 100 Calm 30.16 1022 10 16 0.00 0.00
6:53 am 06:53 Sunny 49 9.4 49 9.4 100 100 Calm 30.16 1022 9 14 0.00 0.00
7:53 am 07:53 Sunny 54 12.2 50 10 87 87 NE 6 9 30.19 1022 10 16 0.00 0.00
8:53 am 08:53 Sunny 58 14.4 50 10 75 75 ENE 8 13 30.19 1022 10 16 0.00 0.00
9:53 am 09:53 Sunny 61 16.1 51 10.6 70 70 NE 7 11 30.19 1022 10 16 0.00 0.00
10:53 am 10:53 Sunny 65 18.3 53 11.7 66 66 NNE 9 15 30.19 1022 10 16 0.00 0.00
11:53 am 11:53 Sunny 68 20 55 12.8 63 63 ENE 12 19 30.18 1022 10 16 0.00 0.00
12:53 pm 12:53 Sunny 70 21.1 54 12.2 57 57 ENE 7 11 30.16 1022 10 16 0.00 0.00
1:53 pm 13:53 Sunny 73 22.8 55 12.8 53 53 NE 12 19 30.14 1021 10 16 0.00 0.00
2:53 pm 14:53 Mostly Sunny 74 23.3 57 13.9 56 56 ENE 7 11 30.12 1020 10 16 0.00 0.00
3:53 pm 15:53 Partly Cloudy 75 23.9 59 15 58 58 ENE 12 19 30.11 1020 10 16 0.00 0.00
4:53 pm 16:53 Partly Cloudy 75 23.9 59 15 58 58 E 7 11 30.10 1019 10 16 0.00 0.00
5:53 pm 17:53 Partly Cloudy 75 23.9 59 15 58 58 E 9 15 30.10 1019 10 16 0.00 0.00
6:53 pm 18:53 Mostly Sunny 74 23.3 60 15.6 62 62 E 8 13 30.09 1019 10 16 0.00 0.00
7:53 pm 19:53 Partly Cloudy 73 22.8 60 15.6 64 64 ESE 6 9 30.10 1019 10 16 0.00 0.00
8:53 pm 20:53 Clear 69 20.6 60 15.6 73 73 SE 5 7 30.10 1019 10 16 0.00 0.00
9:53 pm 21:53 Clear 67 19.4 60 15.6 79 79 SE 3 6 30.11 1020 10 16 0.00 0.00
10:53 pm 22:53 Clear 65 18.3 61 16.1 87 87 S 6 9 30.13 1020 10 16 0.00 0.00
11:53 pm 23:53 Partly Cloudy 65 18.3 60 15.6 84 84 Calm 30.13 1020 10 16 0.00 0.00

Powered by AerisWeather